Regional Weather Roundup
Issued by NWS Sioux Falls, SD

Home | Current Version | Previous Version | Graphics & Text | Print | Product List | Glossary Off
Versions: 1 2 3 4 5 6 7 8 9 10 11 12 13 14 15 16 17 18 19 20 21 22 23 24 25 26 27 28 29 30 31 32 33 34 35 36 37 38 39 40 41 42 43 44 45 46 47 48 49 50

000
ASUS43 KFSD 301210
RWRFSD

WEATHER ROUNDUP FOR SE SOUTH DAKOTA/SW MINNESOTA/NW IOWA
NATIONAL WEATHER SERVICE SIOUX FALLS SD
700 AM CDT THU OCT 30 2014

NOTE: "FAIR" INDICATES FEW OR NO CLOUDS BELOW 12,000 FEET WITH NO
SIGNIFICANT WEATHER AND OR OBSTRUCTIONS TO VISIBILITY.


SDZ038>040-050-052>070-301300-
SOUTHEAST SOUTH DAKOTA

CITY           SKY/WX    TMP DP  RH WIND       PRES   REMARKS
CHAMBERLAIN    CLEAR     42  36  79 N13       30.09R
6HR MIN TEMP:  39; 6HR MAX TEMP:  45;

HURON          CLEAR     36  32  85 NW9       30.05R
6HR MIN TEMP:  35; 6HR MAX TEMP:  46;

MADISON        PTSUNNY   39  34  81 NW12      30.00R
MITCHELL       CLEAR     40  34  79 NW10      30.05R
6HR MIN TEMP:  40; 6HR MAX TEMP:  47;

SIOUX FALLS    MOCLDY    43  34  70 NW10      29.99R
6HR MIN TEMP:  40; 6HR MAX TEMP:  47; 6HR PCP: TRACE;

WINNER         FAIR      44  34  67 NW14      30.11R
YANKTON        CLEAR     39  34  81 W10       30.03R
$$

MNZ071-072-080-081-089-090-097-098-301300-
SOUTHWEST MINNESOTA

CITY           SKY/WX    TMP DP  RH WIND       PRES   REMARKS
FAIRMONT       CLOUDY    41  32  70 S7        30.01S
JACKSON        CLOUDY    41  32  70 SE6       30.00S
LUVERNE        MOCLDY    37  34  87 CALM      29.99R
MARSHALL       CLOUDY    41  34  75 CALM      29.99R
6HR MIN TEMP:  39; 6HR MAX TEMP:  41;

MONTEVIDEO     CLOUDY    37  37 100 CALM      30.03R
PIPESTONE      MOCLDY    41  34  75 CALM      29.98R
REDWOOD FALLS  CLOUDY    40  36  86 SE8       30.00S
TRACY          CLOUDY    43  36  77 S6        29.99S
WINDOM           N/A     39  34  81 E3        30.00S
WORTHINGTON    CLOUDY    43  34  70 SE3       29.99S
$$

IAZ001>003-012>014-020>022-031-032-NEZ013-014-SDZ071-301300-
NORTHWEST IOWA

CITY           SKY/WX    TMP DP  RH WIND       PRES   REMARKS
CHEROKEE       MOCLDY    38  35  87 CALM      30.00S
DENISON        CLEAR     37  34  87 CALM      29.99S
ESTHERVILLE    CLOUDY    40  35  83 E3        30.00R
LE MARS        CLEAR     37  32  81 S3        30.00S
ORANGE CITY    CLEAR     41  32  70 SW3       29.99S
SHELDON        CLOUDY    41  34  75 S6        29.97F
SIOUX CITY     CLEAR     34  31  88 CALM      30.01R
6HR MIN TEMP:  33; 6HR MAX TEMP:  48; 6HR PCP: TRACE;

SPENCER        CLOUDY    41  35  79 S3        30.00R
6HR MIN TEMP:  41; 6HR MAX TEMP:  44;

STORM LAKE     MOCLDY    37  34  87 SW8       30.00S
$$

ABBREVIATIONS USED IN REMARKS
   TC - TEMPERATURE IN CELSIUS
  WCI - WIND CHILL INDEX
   HX - HEAT INDEX
  VSB - VISIBILITY




USA.gov is the U.S. government's official web portal to all federal, state and local government web resources and services.